Terug naar catalogus

BREEZE M R/B

ActiefMEO
NORAD 36517·ROCKET BODY·🇷🇺 Russia

Gelanceerd Apr 24, 2010 vanaf Baikonur Cosmodrome

Loading…

Volgende Passages (komende 24 uur)

TLE

VerouderendSource: Space-Track

Epoch: Aug 29, 2026, 04:18 UTC

1 36517U 10016B   26241.17926286 -.00000113  00000-0  00000+0 0  9991
2 36517   8.1486  18.4512 0716531 217.3641 155.6948  1.20450914 71809

Volg BREEZE M R/B in realtime met AllMySat

Download on the App Store